Preview of NWS' New Version of Forecast
This preview is not operational and should not be used for support decisions.

Regional Weather Roundup (RWR)

Issued by National Weather Service (NWS)

                            
000
ASUS46 KPQR 172310
RWROR 

OREGON REGIONAL WEATHER ROUNDUP
NATIONAL WEATHER SERVICE PORTLAND OR
400 PM PDT SAT AUG 17 2019

NOTE: "FAIR" INDICATES FEW OR NO CLOUDS BELOW 12,000 FEET WITH
NO SIGNIFICANT WEATHER AND/OR OBSTRUCTIONS TO VISIBILITY.

ORZ001>013-180000-
NORTHWEST OREGON

  
CITY           SKY/WX    TMP DP  RH WIND       PRES   REMARKS
ASTORIA        MOSUNNY   67  57  70 W10       30.00F                  
TILLAMOOK      CLOUDY    70  55  60 NW12      30.01F                  
NEWPORT        SUNNY     66  57  72 N14       30.02F                  
PORTLAND       CLOUDY    71  54  54 N3        29.98F                  
VANCOUVER WA   CLOUDY    70  54  56 SW6       29.98F                  
SCAPPOOSE      CLOUDY    70  56  61 N5        29.98F                  
HILLSBORO      CLOUDY    71  53  52 CALM      29.98F                  
AURORA         CLOUDY    72  52  49 NE3       29.99F                  
MCMINNVILLE    CLOUDY    73  53  49 VRB5      29.97F                  
SALEM          MOSUNNY   74  51  44 N12       29.96F                  
CORVALLIS      PTSUNNY   78  55  44 VRB7      29.95F                  
EUGENE         MOSUNNY   79  51  37 N8        29.94F                  
$$

ORZ021-028-180000-
SOUTHWEST OREGON

  
CITY           SKY/WX    TMP DP  RH WIND       PRES   REMARKS
NORTH BEND     SUNNY     68  58  70 N21G30    29.98F                  
BROOKINGS      SUNNY     80  56  43 NW20G25   29.80F                  
ROSEBURG       SUNNY     83  52  34 N12       29.90F                  
SEXTON SUMMIT  SUNNY     73  47  39 VRB3      30.00F                  
GRANTS PASS    FAIR      88  46  23 NW12G18   29.88F                  
MEDFORD        SUNNY     88  44  21 CALM      29.84F                  
$$

ORZ014>016-041-180000-
COLUMBIA GORGE

  
CITY           SKY/WX    TMP DP  RH WIND       PRES   REMARKS
TROUTDALE      CLOUDY    71  54  54 CALM      29.98F                  
HOOD RIVER     MOSUNNY   73  52  46 W8        29.92F                  
THE DALLES     SUNNY     78  53  41 NW18      29.86F                  
$$

ORZ029>031-041-044-049-050-061>064-502-503-505>511-180000-
EASTERN OREGON

  
CITY           SKY/WX    TMP DP  RH WIND       PRES   REMARKS
MADRAS         SUNNY     79  45  29 N8        29.93F                  
REDMOND        SUNNY     83  42  23 N10       29.92F                  
BEND           SUNNY     82  37  20 NW9       29.93F                  
PRINEVILLE     SUNNY     79  39  24 NE12      29.93F                  
KLAMATH FALLS  SUNNY     85  36  17 SW9       29.94F                  
LAKEVIEW       SUNNY     84  33  16 S9        29.97F                  
HERMISTON      SUNNY     84  49  29 SW8       29.82F                  
PENDLETON      SUNNY     81  46  29 SW8       29.85F                  
JOHN DAY       SUNNY     81  37  20 SW6       29.93F                  
MEACHAM        SUNNY     74  43  32 VRB3      29.95F                  
LA GRANDE      SUNNY     80  44  27 N10G18    29.89F                  
BAKER CITY     SUNNY     82  43  25 W9        29.91F                  
BURNS          SUNNY     85  32  15 W12       29.93F                  
ROME             N/A     89  26  10 W15       29.89F                  
ONTARIO        SUNNY     89  46  22 E9        29.82F                  
$$